Location: Fort Wayne
(41.1310°N, 85.1290°W)
Time: 21:05:52
(UTC-04:00)

Courier 1B Rocket - All Passes

Search period start: 26 July 2016 00:00
Search period end: 05 August 2016 00:00
Orbit: 920 x 1202 km, 28.3° (Epoch: 25 July)

Date Brightness Start Highest point End Pass type
(mag) Time Alt. Az. Time Alt. Az. Time Alt. Az.
26 Jul - 06:09:23 10° SSW 06:14:46 20° SSE 06:20:06 10° ESE daylight
26 Jul - 08:01:02 10° SW 08:07:35 30° S 08:13:57 10° ESE daylight
26 Jul - 09:54:13 10° WSW 10:00:28 28° S 10:06:27 10° SE daylight
26 Jul - 11:49:03 10° WSW 11:53:02 15° SSW 11:56:53 10° S daylight
27 Jul - 05:09:33 10° S 05:13:54 16° SSE 05:18:15 10° ESE visible
27 Jul - 07:00:14 10° SW 07:06:37 28° S 07:12:55 10° ESE daylight
27 Jul - 08:52:59 10° WSW 08:59:32 30° S 09:05:52 10° SE daylight
27 Jul - 10:47:02 10° WSW 10:52:15 20° SSW 10:57:17 10° SSE daylight
28 Jul - 04:10:51 10° SSE 04:13:05 11° SSE 04:15:18 10° SE visible
28 Jul - 05:59:39 10° SW 06:05:40 25° SSE 06:11:40 10° ESE visible
28 Jul - 07:51:54 10° WSW 07:58:33 31° S 08:05:05 10° ESE daylight
28 Jul - 09:45:26 10° WSW 09:51:24 25° SSW 09:57:10 10° SE daylight
28 Jul - 11:41:55 10° SW 11:43:53 11° SSW 11:45:49 10° SSW daylight
29 Jul - 04:59:24 10° SSW 05:04:45 20° SSE 05:10:09 10° ESE visible
29 Jul - 06:50:58 10° SW 06:57:34 30° S 07:04:07 10° ESE daylight
29 Jul - 08:44:04 10° WSW 08:50:29 28° S 08:56:44 10° SE daylight
29 Jul - 10:38:49 10° WSW 10:43:07 16° SSW 10:47:19 10° S daylight
30 Jul - 03:59:39 10° S 04:03:54 16° SSE 04:08:13 10° ESE visible
30 Jul - 05:50:14 10° SW 05:56:35 28° S 06:02:59 10° ESE visible
30 Jul - 07:42:54 10° WSW 07:49:31 31° S 07:56:03 10° SE daylight
30 Jul - 09:36:52 10° WSW 09:42:18 21° SSW 09:47:36 10° SSE daylight
31 Jul - 03:01:10 10° SSE 03:03:07 11° SSE 03:05:05 10° SE visible
31 Jul - 04:49:45 10° SW 04:55:38 25° SSE 05:01:39 10° ESE visible
31 Jul - 06:41:53 10° WSW 06:48:31 31° S 06:55:11 10° ESE daylight
31 Jul - 08:35:20 10° WSW 08:41:25 25° SSW 08:47:23 10° SE daylight
31 Jul - 10:31:33 10° SW 10:33:57 12° SSW 10:36:20 10° S daylight
01 Aug - 03:49:35 10° SSW 03:54:45 20° SSE 04:00:04 10° ESE visible
01 Aug - 05:41:02 10° SW 05:47:31 30° S 05:54:07 10° ESE visible
01 Aug - 07:34:02 10° WSW 07:40:27 28° S 07:46:51 10° SE daylight
01 Aug - 09:28:42 10° WSW 09:33:09 16° SSW 09:37:34 10° SSE daylight
02 Aug - 02:49:57 10° S 02:53:56 15° SSE 02:58:02 10° ESE visible
02 Aug - 04:40:24 10° SW 04:46:33 28° S 04:52:55 10° ESE visible
02 Aug - 06:32:56 10° WSW 06:39:28 30° S 06:46:04 10° SE daylight
02 Aug - 08:26:49 10° WSW 08:32:17 21° SSW 08:37:44 10° SSE daylight
03 Aug - 01:51:52 10° SSE 01:53:13 11° SSE 01:54:33 10° SE visible
03 Aug - 03:40:00 10° SW 03:45:39 24° SSE 03:51:31 10° ESE visible
03 Aug - 05:32:01 10° WSW 05:38:29 31° S 05:45:07 10° ESE visible
03 Aug - 07:25:21 10° WSW 07:31:22 25° SSW 07:37:26 10° SE daylight
03 Aug - 09:21:26 10° SW 09:23:59 12° SSW 09:26:31 10° S daylight
04 Aug - 02:39:57 10° SSW 02:44:49 19° SSE 02:49:53 10° ESE visible
04 Aug - 04:31:16 10° SW 04:37:31 30° S 04:44:00 10° ESE visible
04 Aug - 06:24:09 10° WSW 06:30:25 28° S 06:36:49 10° SE daylight
04 Aug - 08:18:42 10° WSW 08:23:09 16° SSW 08:27:36 10° SSE daylight
